Radiation Dose at Monitoring Post of Fukushima Daini Nuclear Power Station
Date,Time,MP-1(microSv/h),MP-2(microSv/h),MP-3(microSv/h),MP-4(microSv/h),MP-5(microSv/h),MP-6(microSv/h),MP-7(microSv/h),Wind Direction,Wind Velocity(m/s),Rain
2020/02/13,00:00,0.184,0.167,0.278,0.259,0.256,0.142,0.087,south-southeast,2.4,No
2020/02/13,00:10,0.183,0.167,0.279,0.258,0.255,0.142,0.088,south-southeast,3.0,No
2020/02/13,00:20,0.183,0.167,0.280,0.260,0.255,0.142,0.086,southeast,3.4,No
2020/02/13,00:30,0.183,0.167,0.279,0.259,0.255,0.142,0.087,south-southeast,3.0,No
2020/02/13,00:40,0.183,0.167,0.278,0.261,0.255,0.142,0.088,south-southeast,2.4,No
2020/02/13,00:50,0.184,0.167,0.280,0.260,0.255,0.142,0.087,south-southeast,1.9,No
2020/02/13,01:00,0.183,0.168,0.279,0.260,0.255,0.142,0.087,south,1.2,No
2020/02/13,01:10,0.183,0.167,0.279,0.260,0.255,0.142,0.087,south-southwest,1.0,No
2020/02/13,01:20,0.183,0.168,0.278,0.260,0.255,0.142,0.088,west-southwest,1.0,No
2020/02/13,01:30,0.183,0.168,0.280,0.259,0.255,0.141,0.087,west-northwest,0.6,No
2020/02/13,01:40,0.184,0.168,0.279,0.260,0.256,0.141,0.088,-,CALM,No
2020/02/13,01:50,0.183,0.167,0.279,0.260,0.256,0.142,0.088,north-northeast,1.1,No
2020/02/13,02:00,0.183,0.168,0.280,0.259,0.256,0.142,0.088,northeast,1.9,No
2020/02/13,02:10,0.183,0.168,0.281,0.260,0.257,0.142,0.087,north-northeast,2.2,No
2020/02/13,02:20,0.184,0.167,0.280,0.262,0.256,0.141,0.087,north-northeast,1.8,No
2020/02/13,02:30,0.183,0.168,0.279,0.260,0.257,0.143,0.089,north-northeast,2.5,No
2020/02/13,02:40,0.183,0.169,0.280,0.260,0.257,0.143,0.088,north-northeast,3.7,Yes
2020/02/13,02:50,0.184,0.169,0.280,0.260,0.256,0.142,0.088,north,3.2,No
2020/02/13,03:00,0.184,0.168,0.280,0.260,0.256,0.143,0.087,north,2.6,Yes
2020/02/13,03:10,0.185,0.168,0.281,0.261,0.257,0.142,0.089,north,2.2,No
2020/02/13,03:20,0.185,0.169,0.281,0.259,0.255,0.143,0.088,north-northwest,3.1,No
2020/02/13,03:30,0.185,0.167,0.280,0.261,0.256,0.142,0.088,north-northwest,3.4,No
2020/02/13,03:40,0.185,0.169,0.280,0.261,0.257,0.143,0.088,north-northwest,3.8,Yes
2020/02/13,03:50,0.183,0.168,0.280,0.260,0.257,0.143,0.089,north-northwest,3.3,Yes
2020/02/13,04:00,0.184,0.168,0.280,0.261,0.256,0.142,0.088,north-northwest,3.1,Yes
2020/02/13,04:10,0.184,0.169,0.280,0.261,0.258,0.143,0.088,north-northwest,3.1,Yes
2020/02/13,04:20,0.185,0.170,0.283,0.262,0.257,0.143,0.089,north-northwest,2.7,Yes
2020/02/13,04:30,0.185,0.170,0.282,0.262,0.257,0.144,0.089,north-northwest,2.6,No
2020/02/13,04:40,0.185,0.169,0.281,0.262,0.258,0.145,0.089,north-northwest,3.8,No
2020/02/13,04:50,0.185,0.169,0.281,0.261,0.257,0.143,0.088,north-northwest,3.6,No
2020/02/13,05:00,0.185,0.168,0.282,0.261,0.257,0.143,0.089,north-northwest,3.1,No
2020/02/13,05:10,0.184,0.168,0.280,0.262,0.256,0.143,0.089,north-northwest,2.8,Yes
2020/02/13,05:20,0.185,0.170,0.280,0.261,0.255,0.143,0.088,north,2.5,Yes
2020/02/13,05:30,0.184,0.169,0.281,0.261,0.256,0.144,0.088,north,2.5,Yes
2020/02/13,05:40,0.184,0.169,0.282,0.262,0.257,0.143,0.088,north-northeast,1.4,Yes
2020/02/13,05:50,0.184,0.169,0.282,0.262,0.257,0.143,0.089,north-northeast,1.0,Yes
2020/02/13,06:00,0.187,0.170,0.283,0.262,0.257,0.144,0.089,north,1.1,Yes
2020/02/13,06:10,0.186,0.170,0.282,0.261,0.258,0.144,0.091,north,1.7,Yes
2020/02/13,06:20,0.186,0.170,0.283,0.263,0.259,0.145,0.090,northwest,1.1,Yes
2020/02/13,06:30,0.186,0.170,0.282,0.262,0.257,0.144,0.090,north-northwest,0.9,Yes
2020/02/13,06:40,0.187,0.171,0.283,0.260,0.257,0.145,0.090,north,0.6,Yes
2020/02/13,06:50,0.186,0.170,0.283,0.263,0.258,0.145,0.091,north,1.3,Yes
2020/02/13,07:00,0.186,0.171,0.283,0.264,0.259,0.146,0.091,north-northwest,1.6,Yes
2020/02/13,07:10,0.188,0.172,0.284,0.264,0.259,0.146,0.092,north-northwest,2.1,Yes
2020/02/13,07:20,0.187,0.173,0.284,0.262,0.259,0.147,0.092,north-northwest,1.4,Yes
2020/02/13,07:30,0.187,0.171,0.284,0.263,0.259,0.147,0.092,north,1.0,Yes
2020/02/13,07:40,0.188,0.171,0.283,0.262,0.258,0.145,0.091,north,0.6,Yes
2020/02/13,07:50,0.185,0.171,0.281,0.262,0.257,0.145,0.091,north-northeast,0.7,No
2020/02/13,08:00,0.185,0.170,0.282,0.260,0.257,0.146,0.090,-,CALM,Yes
2020/02/13,08:10,0.186,0.170,0.280,0.261,0.256,0.144,0.089,-,CALM,No
2020/02/13,08:20,0.184,0.169,0.281,0.262,0.255,0.143,0.088,-,CALM,No
2020/02/13,08:30,0.184,0.169,0.281,0.259,0.255,0.142,0.089,-,CALM,No
2020/02/13,08:40,0.184,0.169,0.279,0.261,0.255,0.143,0.088,-,CALM,No
2020/02/13,08:50,0.183,0.168,0.277,0.259,0.255,0.141,0.088,northwest,0.6,Yes
2020/02/13,09:00,0.185,0.168,0.280,0.258,0.255,0.142,0.088,north-northwest,0.7,Yes
2020/02/13,09:10,0.184,0.168,0.280,0.259,0.253,0.142,0.087,north-northwest,1.0,Yes
2020/02/13,09:20,0.183,0.168,0.278,0.259,0.257,0.142,0.087,-,CALM,No
2020/02/13,09:30,0.183,0.168,0.279,0.259,0.255,0.142,0.087,northeast,0.9,No
2020/02/13,09:40,0.184,0.168,0.277,0.257,0.255,0.141,0.087,north-northeast,1.2,No
2020/02/13,09:50,0.182,0.167,0.277,0.259,0.257,0.142,0.087,north,1.8,No
2020/02/13,10:00,0.183,0.166,0.280,0.258,0.252,0.141,0.086,north-northwest,1.5,No
2020/02/13,10:10,0.182,0.168,0.278,0.259,0.256,0.140,0.087,north-northwest,1.9,No
2020/02/13,10:20,0.183,0.167,0.278,0.258,0.254,0.141,0.088,north,1.9,No
2020/02/13,10:30,0.184,0.167,0.279,0.258,0.254,0.143,0.087,north,1.9,No
2020/02/13,10:40,0.183,0.167,0.278,0.259,0.255,0.142,0.087,north,1.9,No
2020/02/13,10:50,0.181,0.167,0.279,0.258,0.252,0.141,0.087,north-northeast,1.5,No
2020/02/13,11:00,0.183,0.167,0.279,0.257,0.256,0.141,0.086,northeast,1.6,No
2020/02/13,11:10,0.181,0.168,0.276,0.258,0.253,0.141,0.087,northeast,1.4,No
2020/02/13,11:20,0.182,0.167,0.279,0.258,0.256,0.140,0.087,north-northeast,2.2,No
2020/02/13,11:30,0.182,0.167,0.277,0.258,0.252,0.141,0.087,northeast,2.8,No
2020/02/13,11:40,0.182,0.167,0.279,0.257,0.256,0.141,0.086,north-northeast,2.8,No
2020/02/13,11:50,0.182,0.167,0.278,0.259,0.253,0.141,0.086,northeast,3.3,No
2020/02/13,12:00,0.182,0.167,0.278,0.257,0.255,0.140,0.086,northeast,3.6,No
2020/02/13,12:10,0.183,0.167,0.279,0.258,0.252,0.141,0.087,northeast,3.6,No
2020/02/13,12:20,0.182,0.167,0.277,0.257,0.256,0.140,0.087,northeast,3.5,No
2020/02/13,12:30,0.183,0.167,0.279,0.258,0.253,0.142,0.087,northeast,2.9,No
2020/02/13,12:40,0.183,0.168,0.277,0.257,0.255,0.140,0.087,northeast,2.9,No
2020/02/13,12:50,0.182,0.167,0.278,0.257,0.254,0.142,0.087,northeast,3.0,No
2020/02/13,13:00,0.182,0.167,0.276,0.257,0.255,0.142,0.087,north-northeast,3.7,No
2020/02/13,13:10,0.182,0.167,0.278,0.257,0.254,0.140,0.087,northeast,4.5,No
2020/02/13,13:20,0.183,0.168,0.277,0.259,0.254,0.141,0.086,north-northeast,5.1,No
2020/02/13,13:30,0.182,0.168,0.278,0.256,0.254,0.140,0.086,north-northeast,4.6,No
2020/02/13,13:40,0.182,0.167,0.277,0.258,0.254,0.142,0.087,north,5.1,No
2020/02/13,13:50,0.182,0.168,0.279,0.258,0.255,0.141,0.087,north-northeast,5.0,No
2020/02/13,14:00,0.183,0.167,0.277,0.257,0.252,0.140,0.086,north,4.6,No
2020/02/13,14:10,0.182,0.168,0.277,0.259,0.255,0.142,0.087,north,5.3,No
2020/02/13,14:20,0.182,0.167,0.278,0.255,0.253,0.141,0.086,north,5.0,No
2020/02/13,14:30,0.184,0.166,0.278,0.260,0.254,0.142,0.087,north,4.8,No
2020/02/13,14:40,0.182,0.168,0.277,0.258,0.253,0.141,0.086,north,4.9,No
2020/02/13,14:50,0.183,0.167,0.280,0.259,0.256,0.141,0.087,north,4.0,No
2020/02/13,15:00,0.184,0.167,0.279,0.259,0.253,0.141,0.086,north,4.1,No
2020/02/13,15:10,0.182,0.167,0.279,0.260,0.257,0.141,0.086,north-northwest,3.3,No
2020/02/13,15:20,0.182,0.166,0.279,0.260,0.253,0.141,0.086,north,2.2,No
2020/02/13,15:30,0.183,0.168,0.278,0.260,0.255,0.141,0.087,north-northeast,1.9,No
2020/02/13,15:40,0.182,0.168,0.278,0.260,0.255,0.142,0.087,north-northwest,2.0,No
2020/02/13,15:50,0.183,0.168,0.280,0.260,0.255,0.141,0.087,northwest,1.9,No
2020/02/13,16:00,0.181,0.168,0.277,0.258,0.256,0.140,0.086,north-northeast,1.3,No
2020/02/13,16:10,0.181,0.167,0.280,0.261,0.253,0.141,0.086,north-northwest,2.0,No
2020/02/13,16:20,0.184,0.167,0.278,0.258,0.257,0.140,0.087,northwest,2.8,No
2020/02/13,16:30,0.182,0.167,0.277,0.258,0.254,0.140,0.086,north-northwest,4.5,No
2020/02/13,16:40,0.182,0.168,0.279,0.260,0.255,0.141,0.086,north-northwest,4.0,No
2020/02/13,16:50,0.182,0.167,0.279,0.259,0.255,0.141,0.087,north,3.4,No
2020/02/13,17:00,0.183,0.168,0.278,0.259,0.254,0.141,0.087,north,2.1,No
2020/02/13,17:10,0.182,0.166,0.278,0.260,0.256,0.142,0.088,north-northwest,2.4,No
2020/02/13,17:20,0.183,0.167,0.279,0.259,0.256,0.141,0.086,north-northwest,1.3,No
2020/02/13,17:30,0.183,0.167,0.278,0.258,0.255,0.141,0.087,north-northeast,1.6,No
2020/02/13,17:40,0.182,0.167,0.279,0.259,0.255,0.141,0.086,north-northeast,1.8,No
2020/02/13,17:50,0.184,0.168,0.278,0.259,0.255,0.142,0.087,east,0.6,No
2020/02/13,18:00,0.184,0.167,0.279,0.257,0.253,0.142,0.086,-,CALM,No
2020/02/13,18:10,0.182,0.168,0.280,0.259,0.255,0.141,0.087,northeast,0.8,No
2020/02/13,18:20,0.183,0.167,0.279,0.258,0.255,0.141,0.087,northwest,2.0,No
2020/02/13,18:30,0.183,0.167,0.278,0.259,0.254,0.141,0.086,southwest,3.2,No
2020/02/13,18:40,0.184,0.168,0.278,0.260,0.255,0.141,0.086,west-southwest,4.4,No
2020/02/13,18:50,0.183,0.167,0.277,0.259,0.254,0.140,0.087,west-southwest,1.5,No
2020/02/13,19:00,0.182,0.167,0.278,0.259,0.255,0.141,0.087,west-southwest,3.2,No
2020/02/13,19:10,0.183,0.168,0.278,0.260,0.254,0.141,0.086,southwest,5.0,No
2020/02/13,19:20,0.183,0.166,0.277,0.259,0.254,0.142,0.087,west-southwest,7.5,No
2020/02/13,19:30,0.182,0.167,0.278,0.259,0.256,0.141,0.087,southwest,5.2,No
2020/02/13,19:40,0.183,0.167,0.277,0.259,0.253,0.141,0.086,southwest,6.1,No
2020/02/13,19:50,0.181,0.167,0.279,0.258,0.254,0.141,0.087,west-southwest,6.5,No
2020/02/13,20:00,0.184,0.168,0.279,0.260,0.254,0.141,0.086,west-southwest,4.6,No
2020/02/13,20:10,0.183,0.167,0.278,0.258,0.255,0.141,0.087,west-southwest,4.4,No
2020/02/13,20:20,0.183,0.167,0.279,0.258,0.254,0.141,0.087,west-northwest,2.9,No
2020/02/13,20:30,0.182,0.169,0.278,0.258,0.255,0.141,0.086,west-southwest,1.9,No
2020/02/13,20:40,0.183,0.167,0.280,0.260,0.254,0.141,0.087,west-southwest,3.1,No
2020/02/13,20:50,0.183,0.166,0.278,0.259,0.254,0.142,0.087,west-southwest,3.1,No
2020/02/13,21:00,0.183,0.168,0.278,0.258,0.257,0.142,0.087,west,2.2,No
2020/02/13,21:10,0.183,0.167,0.279,0.260,0.254,0.142,0.087,west-northwest,3.4,No
2020/02/13,21:20,0.183,0.167,0.278,0.259,0.255,0.142,0.087,west-northwest,5.4,No
2020/02/13,21:30,0.182,0.166,0.278,0.258,0.255,0.141,0.087,west,4.3,No
2020/02/13,21:40,0.183,0.167,0.278,0.259,0.255,0.141,0.087,west,6.0,No
2020/02/13,21:50,0.182,0.167,0.278,0.258,0.254,0.140,0.086,west-northwest,4.1,No
2020/02/13,22:00,0.183,0.167,0.279,0.259,0.255,0.141,0.086,northwest,3.1,No
2020/02/13,22:10,0.182,0.168,0.278,0.259,0.256,0.141,0.087,west-northwest,4.8,No
2020/02/13,22:20,0.182,0.168,0.279,0.258,0.254,0.142,0.086,west,5.3,No
2020/02/13,22:30,0.183,0.166,0.278,0.259,0.255,0.143,0.087,west-northwest,6.3,No
2020/02/13,22:40,0.182,0.169,0.279,0.258,0.255,0.141,0.087,west-northwest,4.2,No
2020/02/13,22:50,0.183,0.166,0.278,0.258,0.253,0.142,0.086,northwest,6.2,No
2020/02/13,23:00,0.183,0.168,0.278,0.259,0.256,0.141,0.086,northwest,4.3,No
2020/02/13,23:10,0.183,0.167,0.280,0.257,0.254,0.141,0.086,north-northeast,1.9,No
2020/02/13,23:20,0.182,0.166,0.278,0.260,0.255,0.141,0.086,northwest,2.6,No
2020/02/13,23:30,0.182,0.168,0.279,0.258,0.255,0.141,0.086,northeast,2.7,No
2020/02/13,23:40,0.183,0.167,0.280,0.257,0.254,0.140,0.086,north-northwest,2.9,No
2020/02/13,23:50,0.183,0.166,0.277,0.259,0.256,0.142,0.087,west-northwest,3.2,No
